Location: Epalinges
(46.5518°N, 6.6683°E)
Time: 19:53:47
(UTC+00:00)

Cosmos 921 Rocket - Pass Details

Date: 20 June 2021
Orbit: 572 x 632 km, 75.8° (Epoch: 31 July)

Event Time Altitude Azimuth Distance (km) Brightness Sun altitude
Exits shadow 01:32:35 27° 221° (SW) 1,134 3.8 -15.1°
Maximum altitude 01:34:44 59° 291° (WNW) 667 3.1 -14.9°
Drops below altitude 10° 01:38:52 10° 12° (NNE) 1,888 6.8 -14.6°
Sets 01:41:07 0° 16° (NNE) 2,790 8.1 -14.4°
